"Time","Temp","Dewpoint","Humidity","Pressure","Direction","Speed","Gust","Precip","PrecipRate"
"00:04:59","68.8","67.9","97","29.71","173","1.2","3.6","0.00","0.00"
"00:09:56","68.9","68.1","97.3","29.71","173","0.3","1.2","0.00","0.00"
"00:14:56","68.9","68.3","97.8","29.71","173","0","1.2","0.00","0.00"
"00:19:59","68.9","68.3","98","29.71","173","0","0","0.00","0.00"
"00:24:58","68.8","68.1","97.5","29.71","173","0","0","0.00","0.00"
"00:28:25","68.8","67.9","97","29.71","173","0","0","0.00","0.00"
"00:34:56","68.6","67.7","97","29.71","173","0.1","2.4","0.00","0.00"
"00:39:58","68.5","67.8","97.8","29.71","173","0.3","1.2","0.00","0.00"
"00:44:59","68.5","67.9","98","29.71","173","0.2","1.2","0.00","0.00"
"00:49:56","68.6","68","98","29.71","173","0","1.2","0.00","0.00"
"00:54:58","68.5","67.9","98","29.71","173","0","0","0.00","0.00"
"00:59:56","68.5","67.9","98","29.71","173","0","0","0.00","0.00"
"01:04:58","68.5","67.9","98","29.70","173","0.1","1.2","0.00","0.00"
"01:09:58","68.4","67.8","98","29.70","173","0","0","0.00","0.00"
"01:14:59","68.3","67.7","98","29.70","173","0","0","0.00","0.00"
"01:19:56","68.2","67.6","98","29.70","173","0","1.2","0.00","0.00"
"01:24:57","68.3","67.7","98","29.70","173","0.3","2.4","0.00","0.00"
"01:29:56","68.3","67.6","97.9","29.70","173","0.7","2.4","0.00","0.00"
"01:34:58","68.1","67.5","98","29.70","167","0.6","3.6","0.00","0.00"
"01:39:56","68.3","67.7","98","29.70","165","1.4","3.6","0.00","0.00"
"01:44:59","68.4","67.8","98","29.70","166","0.4","2.3","0.00","0.00"
"01:49:56","68.5","67.9","98","29.69","166","0.4","2.4","0.00","0.00"
"01:54:58","68.5","67.9","98","29.69","166","0","0","0.00","0.00"
"01:59:59","68.5","67.9","98","29.69","166","0.5","2.4","0.00","0.00"
"02:04:57","68.5","67.9","98","29.69","165","2.2","4.8","0.00","0.00"
"02:09:57","68.6","68","98","29.69","348","0.3","4.6","0.00","0.00"
"02:14:56","68.8","68.2","98","29.69","348","0.2","2.4","0.00","0.00"
"02:19:57","68.9","68.3","98","29.69","348","0","0","0.00","0.00"
"02:24:57","69","68.4","98","29.69","348","0","0","0.00","0.00"
"02:29:56","69.1","68.5","98","29.69","348","0","0","0.00","0.00"
"02:34:58","69.1","68.5","98","29.69","348","0","0","0.00","0.00"
"02:39:56","69.2","68.6","98","29.69","348","0","0","0.00","0.00"
"02:44:55","69.3","68.7","98","29.69","348","0","0","0.00","0.00"
"02:49:57","69.3","68.7","98","29.69","348","0","0","0.00","0.00"
"02:54:59","69.4","68.8","98","29.69","348","0.7","2.4","0.00","0.00"
"02:59:57","69.4","68.8","98","29.69","348","1.1","3.6","0.00","0.00"
"03:04:59","69.4","68.8","98","29.69","348","1.1","3.6","0.00","0.00"
"03:09:59","69.3","68.7","98","29.69","348","0.8","2.4","0.00","0.00"
"03:14:59","69.2","68.6","98","29.69","347","1.1","4.8","0.00","0.00"
"03:19:56","69","68.4","98","29.69","348","1.5","4.6","0.00","0.00"
"03:24:58","68.8","68.2","98","29.69","348","0.4","2.4","0.00","0.00"
"03:29:56","68.6","68","98","29.69","348","0.5","1.2","0.00","0.00"
"03:34:58","68.5","67.9","98","29.69","346","0.5","2.4","0.00","0.00"
"03:39:57","68.4","67.8","98","29.69","341","1.2","3.6","0.00","0.00"
"03:44:57","68.4","67.8","98","29.70","337","1.1","4.8","0.00","0.00"
"03:49:58","68.4","67.8","98","29.70","332","1.2","2.4","0.00","0.00"
"03:54:58","68.4","67.8","98","29.70","327","1.6","3.6","0.00","0.00"
"03:59:57","68.4","67.8","98","29.70","327","1.1","3.6","0.00","0.00"
"04:04:58","68.5","67.9","98","29.70","322","0.9","4.8","0.00","0.00"
"04:09:58","68.5","67.9","98","29.70","320","1.3","3.6","0.00","0.00"
"04:14:58","68.5","67.9","98","29.70","317","1","3.6","0.00","0.00"
"04:19:59","68.6","68","98","29.70","316","1.6","3.6","0.00","0.00"
"04:24:56","68.8","68.2","98","29.70","317","0.5","2.3","0.00","0.00"
"04:29:58","68.8","68.2","98","29.70","317","0.6","2.4","0.00","0.00"
"04:34:56","68.8","68.2","98","29.70","317","0.3","2.4","0.00","0.00"
"04:39:58","68.8","68.2","98","29.70","317","0.3","2.4","0.00","0.00"
"04:44:57","68.8","68.2","98","29.71","317","0.6","2.4","0.00","0.00"
"04:49:58","68.6","68","98","29.71","317","0.1","1.2","0.00","0.00"
"04:54:56","68.5","67.9","98","29.71","317","0.1","2.4","0.00","0.00"
"04:59:58","68.4","67.8","98","29.72","317","0.1","2.3","0.00","0.00"
"05:04:56","68.3","67.7","98","29.72","317","0","1.2","0.00","0.00"
"05:09:59","68.2","67.6","98","29.72","317","0.1","1.2","0.00","0.00"
"05:14:59","68.2","67.6","98","29.73","317","0.1","1.2","0.00","0.00"
"05:19:56","68.2","67.6","98","29.73","317","0.1","1.2","0.00","0.00"
"05:24:56","68.3","67.7","98","29.73","317","0","0","0.00","0.00"
"05:29:58","68.3","67.7","98","29.73","317","0","0","0.00","0.00"
"05:34:58","68.3","67.7","98","29.73","331","0.6","4.8","0.00","0.00"
"05:39:59","68.3","67.7","98","29.73","331","0.6","2.4","0.00","0.00"
"05:44:57","68.3","67.7","98","29.74","331","0.2","2.4","0.00","0.00"
"05:49:57","68.3","67.7","98","29.74","285","0.5","4.8","0.00","0.00"
"05:54:58","68.5","67.9","98","29.74","259","0.3","4.6","0.00","0.00"
"05:59:59","68.5","67.9","98","29.75","259","0.3","2.4","0.00","0.00"
"06:04:56","68.5","67.9","98","29.75","259","0.6","2.4","0.00","0.00"
"06:09:57","68.4","67.8","98","29.75","259","0.2","2.4","0.00","0.00"
"06:14:56","68.3","67.7","98","29.75","259","0.1","1.2","0.00","0.00"
"06:19:57","68.2","67.6","98","29.75","259","0.1","1.2","0.00","0.00"
"06:24:58","68","67.4","98","29.75","259","0","0","0.00","0.00"
"06:29:56","67.8","67.2","97.9","29.76","240","0","0","0.00","0.00"
"06:34:58","67.7","66.8","97","29.76","240","0","0","0.00","0.00"
"06:39:59","67.6","66.7","97","29.76","240","0","0","0.00","0.00"
"06:44:58","67.5","66.6","97","29.77","240","0","1.2","0.00","0.00"
"06:49:58","67.4","66.5","97","29.77","240","0.2","1.2","0.00","0.00"
"06:54:58","67.2","66.3","97","29.77","177","1.1","3.6","0.00","0.00"
"06:59:59","67.1","66.2","97","29.77","268","1.5","6","0.00","0.00"
"07:04:56","67.1","66.2","97","29.77","316","1.3","6","0.00","0.00"
"07:09:59","67.3","66.1","96.1","29.77","344","1.5","5.8","0.00","0.00"
"07:14:58","67.6","66.1","95.1","29.79","302","2.2","8.4","0.00","0.00"
"07:19:58","68.1","66.1","93.5","29.79","265","0.9","3.6","0.00","0.00"
"07:24:58","68.4","66.2","92.5","29.79","263","0.9","3.6","0.00","0.00"
"07:29:59","68.8","66","90.8","29.79","292","2.3","7.2","0.00","0.00"
"07:34:58","69.2","65.8","89.2","29.79","340","2.7","8.4","0.00","0.00"
"07:39:58","69.3","65.7","88.4","29.79","268","1.9","4.8","0.00","0.00"
"07:44:56","69.3","65.7","88.4","29.80","337","1.4","6","0.00","0.00"
"07:49:56","69.1","65","86.8","29.80","0","2.3","9.6","0.00","0.00"
"07:54:56","69","64.7","86","29.80","264","2.1","5.8","0.00","0.00"
"07:59:57","69","64.6","86","29.81","242","1.4","6","0.00","0.00"
"08:04:59","68.9","64.3","85.3","29.81","250","1.7","4.8","0.00","0.00"
"08:09:58","68.9","64.1","84.7","29.81","290","1.4","4.8","0.00","0.00"
"08:14:57","68.9","63.6","83.3","29.81","297","1.8","4.8","0.00","0.00"
"08:19:57","69","63.5","82.7","29.81","282","2.1","6","0.00","0.00"
"08:24:58","69.2","63.7","82.6","29.81","284","1.5","4.8","0.00","0.00"
"08:29:56","69.3","64.5","84.7","29.82","244","1.5","4.8","0.00","0.00"
"08:34:57","69.3","64.5","84.9","29.82","236","0.8","3.6","0.00","0.00"
"08:39:58","69.4","64.2","83.6","29.82","236","1.1","4.8","0.00","0.00"
"08:44:57","69.7","64.5","83.5","29.82","221","2","6","0.00","0.00"
"08:49:57","70","64.6","83.1","29.82","234","1.1","4.8","0.00","0.00"
"08:54:57","70.2","64.6","82.4","29.82","199","0.9","4.8","0.00","0.00"
"08:59:58","70.4","64.7","82.4","29.82","189","0.8","3.6","0.00","0.00"
"09:04:59","70.5","64.3","80.7","29.82","223","2","4.8","0.00","0.00"
"09:09:58","70.6","63.5","78.2","29.82","285","2.6","7.2","0.00","0.00"
"09:14:57","70.7","63.6","78.2","29.82","269","1.7","8.4","0.00","0.00"
"09:19:58","70.9","63.5","77.5","29.82","298","3.7","8.4","0.00","0.00"
"09:24:58","71.4","63.3","75.9","29.82","303","1.4","6","0.00","0.00"
"09:29:56","72.2","64.3","76.4","29.82","255","3.2","8.4","0.00","0.00"
"09:34:57","72.6","63.8","73.8","29.82","290","3.3","12","0.00","0.00"
"09:39:58","72.8","63.6","73","29.82","254","3.7","11.5","0.00","0.00"
"09:44:56","73","63.2","71.5","29.82","327","4.1","12","0.00","0.00"
"09:49:59","73.4","64.2","73","29.82","298","3.6","12","0.00","0.00"
"09:54:56","74","64.5","72.3","29.82","277","3","8.4","0.00","0.00"
"09:59:59","74.7","64.8","71.2","29.82","228","3.1","13.2","0.00","0.00"
"10:04:56","75.3","63.6","67","29.82","331","6.4","16.1","0.00","0.00"
"10:09:59","75.1","63.3","66.9","29.82","312","6.4","17.3","0.00","0.00"
"10:14:58","75.2","63.2","66.3","29.82","287","6.3","19.6","0.00","0.00"
"10:19:58","74.8","63","66.6","29.82","310","4.2","10.8","0.00","0.00"
"10:24:59","74.8","62.3","65.2","29.82","291","5.5","10.8","0.00","0.00"
"10:29:57","75.3","63.2","66.1","29.82","282","4.9","12","0.00","0.00"
"10:34:58","75.5","62.6","64.3","29.81","321","6","18.4","0.00","0.00"
"10:39:59","76.3","63.4","64.5","29.81","289","5.8","15","0.00","0.00"
"10:44:57","75.9","61.7","61.4","29.82","314","5","15","0.00","0.00"
"10:49:58","75.3","62.4","64.2","29.82","270","5.2","13.2","0.00","0.00"
"10:54:59","75.8","62.1","62.6","29.82","294","5.6","15","0.00","0.00"
"10:59:58","76.3","62.6","62.6","29.82","303","4.3","12","0.00","0.00"
"11:04:59","76.9","62.9","62.2","29.82","292","5.7","21.9","0.00","0.00"
"11:09:58","76.7","62.2","60.9","29.82","263","5","17.3","0.00","0.00"
"11:14:58","76.1","62.4","62.6","29.82","238","3.3","10.8","0.00","0.00"
"11:19:56","76.4","62.3","61.8","29.82","312","7","19.2","0.00","0.00"
"11:24:57","77.1","61.9","59.5","29.82","330","8.6","23","0.00","0.00"
"11:29:56","77.3","62.1","59.5","29.82","325","7","17.3","0.00","0.00"
"11:34:57","78.1","63.3","60.5","29.82","325","6.3","20.4","0.00","0.00"
"11:39:59","77.8","62.4","59","29.82","332","6.3","16.1","0.00","0.00"
"11:44:59","78.3","63.1","59.7","29.82","291","6","13.2","0.00","0.00"
"11:49:57","78.7","62.7","57.9","29.82","315","7.4","18.4","0.01","0.01"
"11:54:59","77.5","62","58.8","29.82","326","7.1","16.1","0.01","0.01"
"11:59:57","76.7","62.2","61","29.82","308","4.8","15","0.01","0.01"
"12:04:59","76.5","62.4","61.7","29.82","324","3.2","7.2","0.01","0.01"
"12:09:58","76.8","62.6","61.6","29.82","290","5.7","15.6","0.01","0.01"
"12:14:58","78","62.9","59.9","29.82","311","7.1","19.2","0.01","0.01"
"12:19:57","78.8","63.1","58.6","29.82","255","7.2","19.6","0.01","0.01"
"12:24:59","78.2","63.2","60","29.82","292","4.2","15.6","0.01","0.01"
"12:29:57","77.5","62","59","29.82","309","4.6","16.1","0.01","0.01"
"12:34:58","76.9","62.1","60.3","29.81","291","4.1","17.3","0.01","0.01"
"12:39:56","77.1","62.6","60.9","29.81","314","4.1","12","0.01","0.01"
"12:44:59","77.9","63","60.3","29.81","306","5.8","18","0.01","0.01"
"12:49:57","78.5","62.5","57.8","29.80","326","5.2","14.4","0.01","0.01"
"12:54:58","78.5","62.8","58.7","29.80","229","3.9","8.4","0.01","0.00"
"12:59:56","78.2","63","59.8","29.81","242","3","8.4","0.01","0.00"
"13:04:58","78.1","63.7","61.2","29.81","219","1.9","6","0.01","0.00"
"13:09:57","78.4","63.3","59.8","29.81","258","5.8","14.4","0.01","0.00"
"13:14:57","78.2","62.7","59.1","29.82","273","5.2","15","0.01","0.00"
"13:19:59","77.9","62.5","59.2","29.82","246","6.5","17.3","0.01","0.00"
"13:24:57","77.8","62.6","59.5","29.82","231","5","12","0.01","0.00"
"13:29:59","77.5","62.5","59.9","29.82","301","3.6","13.2","0.01","0.00"
"13:34:57","77.3","62.5","60.2","29.82","301","5.7","17.3","0.01","0.00"
"13:39:59","77.4","62.8","60.8","29.82","258","4.5","13.2","0.01","0.00"
"13:44:58","77.9","63.4","61.1","29.83","243","3.9","9.6","0.01","0.00"
"13:49:56","78.1","63.2","60.3","29.83","293","5.6","16.8","0.01","0.00"
"13:54:58","78.1","63.3","60.4","29.83","272","3.8","17.3","0.01","0.00"
"13:59:56","78.4","63.3","59.7","29.83","281","4.6","13.2","0.01","0.00"
"14:04:59","79.2","64.3","60.4","29.83","240","4.5","12","0.01","0.00"
"14:09:56","81","65.2","58.7","29.83","237","5.4","15","0.01","0.00"
"14:14:57","81.2","64.3","56.4","29.83","246","5.2","15","0.01","0.00"
"14:19:56","80.4","64.1","57.8","29.83","224","5.5","15","0.01","0.00"
"14:24:59","80.3","65","59.7","29.83","251","3.6","10.8","0.01","0.00"
"14:29:59","80.1","63.8","57.6","29.83","267","4.7","18","0.01","0.00"
"14:34:59","80","64.2","58.7","29.82","229","5","12.7","0.01","0.00"
"14:39:58","81.6","64.8","56.9","29.82","281","7.7","20.7","0.01","0.00"
"14:44:59","82.1","64.8","55.8","29.82","303","6.1","14.4","0.01","0.00"
"14:49:58","82","64","54.6","29.81","295","7.4","17.3","0.01","0.00"
"14:54:57","81.8","64.8","56.4","29.81","275","4.9","10.8","0.01","0.00"
"14:59:57","82.4","64.3","54.6","29.81","282","6.2","18.4","0.01","0.00"
"15:04:56","81.5","64.3","55.9","29.80","301","4.5","13.2","0.01","0.00"
"15:09:57","80.7","63.4","55.7","29.80","294","6.1","15","0.01","0.00"
"15:14:59","80.6","64.2","57.4","29.80","259","3.6","10.4","0.01","0.00"
"15:19:58","82","65.3","57.1","29.79","277","3.6","10.8","0.01","0.00"
"15:24:59","83.1","65.8","56","29.79","246","3.9","8.4","0.01","0.00"
"15:29:56","83","65.4","55.4","29.79","285","3.9","7.2","0.01","0.00"
"15:34:59","83.5","65.8","55.3","29.79","299","3.8","8.4","0.01","0.00"
"15:39:59","83.1","65","54.5","29.79","304","5.3","16.1","0.01","0.00"
"15:44:57","82.8","65.5","56.1","29.79","289","4.4","13.2","0.01","0.00"
"15:49:56","83.3","65.6","55.4","29.78","283","4.3","16.1","0.01","0.00"
"15:54:59","83.4","66","55.8","29.78","247","4.6","13.2","0.01","0.00"
"15:59:59","83.5","65.3","54.4","29.78","279","4.2","10.8","0.01","0.00"
"16:04:59","83.4","65.4","54.7","29.77","27","5","13.2","0.01","0.00"
"16:09:59","83.8","65.8","54.8","29.77","319","4.8","13.2","0.01","0.00"
"16:14:57","84","65.9","54.6","29.77","235","4.2","10.8","0.01","0.00"
"16:19:56","84.8","66.6","54.5","29.77","260","3.8","13.2","0.01","0.00"
"16:24:59","85.3","66.6","53.7","29.77","259","4.6","12.7","0.01","0.00"
"16:29:56","85.6","66.5","53","29.77","282","3.7","12","0.01","0.00"
"16:34:59","85.6","65.7","51.6","29.77","269","5.1","15","0.01","0.00"
"16:39:59","85.3","65.4","51.4","29.77","291","4.1","10.8","0.01","0.00"
"16:44:55","85.4","65.4","51.3","29.77","323","4.2","13.2","0.01","0.00"
"16:49:59","85.6","65.2","50.6","29.77","293","3.7","16.1","0.01","0.00"
"16:54:58","85.7","64.7","49.5","29.77","278","6.7","16.1","0.01","0.00"
"16:59:58","85.7","64.4","49.2","29.78","274","5.5","17.3","0.01","0.00"
"17:04:58","85.6","64","48.7","29.78","298","4.3","12.7","0.01","0.00"
"17:09:59","85.4","64","48.8","29.78","275","4.6","15","0.01","0.00"
"17:14:56","85.6","64.8","50.1","29.78","309","3.2","12.7","0.01","0.00"
"17:19:56","85.7","64.4","49.2","29.78","306","3.4","7.2","0.01","0.00"
"17:24:59","85.3","63.7","48.4","29.78","297","3.4","7.2","0.01","0.00"
"17:29:59","84.9","64.2","50","29.78","285","3.3","10.8","0.01","0.00"
"17:34:58","84.9","63.6","49","29.78","275","3.5","7.2","0.01","0.00"
"17:39:58","85","63.9","49.3","29.78","238","3.2","7.2","0.01","0.00"
"17:44:59","85.1","64.3","49.8","29.78","244","4.5","13.2","0.01","0.00"
"17:49:59","85.2","63.6","48.5","29.78","328","5.1","16.1","0.01","0.00"
"17:54:58","85.2","64.4","49.8","29.78","242","3.1","6","0.01","0.00"
"17:59:58","85.5","64.3","49.2","29.78","316","3.8","14.4","0.01","0.00"
"18:04:58","85.3","63.9","48.9","29.78","256","4.2","15","0.01","0.00"
"18:09:59","85.2","63.9","49.1","29.78","278","4.1","8.4","0.01","0.00"
"18:14:57","84.9","63.5","48.8","29.78","255","4","13.2","0.01","0.00"
"18:19:59","84.7","63.7","49.6","29.78","299","3","9.6","0.01","0.00"
"18:24:59","84.7","64.1","50.2","29.78","310","2.9","7.2","0.01","0.00"
"18:29:57","84.5","63.5","49.5","29.78","282","4.9","13.2","0.01","0.00"
"18:34:57","84","63.6","50.5","29.77","311","3.3","7.2","0.01","0.00"
"18:39:56","83.6","63.6","51.1","29.77","299","2.4","8.4","0.01","0.00"
"18:44:58","83.4","63.5","51.2","29.78","314","3.2","8.4","0.01","0.00"
"18:49:57","83.3","63.3","51.1","29.78","283","2.9","6","0.01","0.00"
"18:54:57","83.1","63.2","51.2","29.78","282","3.8","13.2","0.01","0.00"
"18:59:56","82.9","63","51.3","29.78","292","4.1","12","0.01","0.00"
"19:04:59","82.8","63.4","52.1","29.78","294","3.2","9.6","0.01","0.00"
"19:09:56","82.6","63","51.7","29.78","334","3.1","9.6","0.01","0.00"
"19:14:58","82.4","62.5","51.1","29.79","242","2.6","8.4","0.01","0.00"
"19:19:57","82.2","62.4","51.2","29.79","294","3.3","8.4","0.01","0.00"
"19:24:57","82.1","62.5","51.7","29.79","316","1.8","13.2","0.01","0.00"
"19:29:57","81.8","62.5","52","29.79","312","1.1","6","0.01","0.00"
"19:34:57","81.5","62.5","52.6","29.79","278","1.6","5.8","0.01","0.00"
"19:39:56","81.2","62.3","52.8","29.79","265","1.3","3.6","0.01","0.00"
"19:44:59","80.9","62.2","53.1","29.79","250","0.9","3.6","0.01","0.00"
"19:49:57","80.6","62.2","53.7","29.79","232","1.5","4.8","0.01","0.00"
"19:54:57","80.2","62.7","55.2","29.79","227","0.9","2.4","0.01","0.00"
"19:59:59","79.7","62.3","55.3","29.80","227","0.7","2.4","0.01","0.00"
"20:04:58","79.4","62.2","55.6","29.80","229","1.2","3.6","0.01","0.00"
"20:09:56","79.2","62.3","56.3","29.80","271","1.3","3.6","0.01","0.00"
"20:14:58","79.1","62.4","56.7","29.80","284","1","3.6","0.01","0.00"
"20:19:58","78.9","62","56.2","29.80","323","1.6","6","0.01","0.00"
"20:24:58","78.8","62.1","56.6","29.80","331","1","3.5","0.01","0.00"
"20:29:57","78.6","61.8","56.3","29.80","301","2.5","6","0.01","0.00"
"20:34:56","78.6","61.8","56.3","29.80","176","1.4","4.8","0.01","0.00"
"20:39:59","78.5","62","57","29.80","327","1.4","4.8","0.01","0.00"
"20:44:59","78.3","61.8","57","29.80","291","2.1","6","0.01","0.00"
"20:49:57","78.2","61.7","57","29.80","300","1.9","4.8","0.01","0.00"
"20:54:59","78.1","61.9","57.7","29.80","245","1.1","3.6","0.01","0.00"
"20:59:59","77.7","61.8","58","29.81","246","1.1","3.6","0.01","0.00"
"21:04:57","77.3","61.9","59","29.81","233","0.9","3.6","0.01","0.00"
"21:09:56","77.1","61.7","59.2","29.81","272","1.3","6","0.01","0.00"
"21:14:57","77.3","61.7","58.6","29.81","314","2.3","8.4","0.01","0.00"
"21:19:59","77.6","61.7","58","29.81","287","1.4","4.8","0.01","0.00"
"21:24:57","77.8","61.9","58.2","29.81","278","1.2","3.6","0.01","0.00"
"21:29:56","77.6","62","58.6","29.83","285","1.5","4.8","0.01","0.00"
"21:34:59","77.4","61.8","58.5","29.83","286","1.8","4.8","0.01","0.00"
"21:39:58","77.4","62","59.3","29.83","278","0.8","2.4","0.01","0.00"
"21:44:59","77.1","61.9","59.5","29.83","278","0.1","1.2","0.01","0.00"
"21:49:57","76.8","61.9","60.1","29.83","278","0.1","1.2","0.01","0.00"
"21:54:56","76.4","61.9","60.8","29.83","278","0","1.2","0.01","0.00"
"21:59:59","76","61.9","61.9","29.83","278","0.3","2.4","0.01","0.00"
"22:04:57","75.6","62","62.9","29.83","278","0","0","0.01","0.00"
"22:09:57","75.1","62.1","64","29.83","278","0.4","3.6","0.01","0.00"
"22:14:58","74.7","61.9","64.5","29.84","278","0.2","1.2","0.01","0.00"
"22:19:56","74.1","62.4","66.8","29.84","278","0","1.2","0.01","0.00"
"22:24:58","73.6","62.4","68.1","29.84","278","0","0","0.01","0.00"
"22:29:57","73.1","62.3","69.1","29.84","278","0","1.2","0.01","0.00"
"22:34:59","72.6","62.4","70.4","29.84","278","0.1","1.2","0.01","0.00"
"22:39:57","72.2","62.4","71.3","29.84","278","0","0","0.01","0.00"
"22:44:56","71.8","61.9","71.2","29.85","278","0","0","0.01","0.00"
"22:49:58","71.3","61.9","72.1","29.85","278","0","0","0.01","0.00"
"22:54:56","70.9","61.9","73.1","29.85","278","0.3","3.6","0.01","0.00"
"22:59:59","70.6","61.9","74","29.85","278","1.1","3.6","0.01","0.00"
"23:04:56","70.4","62","74.7","29.85","278","0.2","2.4","0.01","0.00"
"23:09:56","70.2","62","75.4","29.85","278","0","0","0.01","0.00"
"23:14:56","69.9","62","76","29.85","278","0","0","0.01","0.00"
"23:19:58","69.7","61.8","76.2","29.84","278","0","0","0.01","0.00"
"23:24:56","69.4","62.1","77.6","29.84","278","0","0","0.01","0.00"
"23:29:58","69.1","61.9","77.9","29.84","278","0","0","0.01","0.00"
"23:34:56","68.8","62.1","79.1","29.84","278","0","0","0.01","0.00"
"23:39:58","68.5","62","79.7","29.84","278","0","0","0.01","0.00"
"23:44:58","68.3","61.9","80","29.84","278","0","1.2","0.01","0.00"
"23:49:55","68.1","62","80.9","29.84","278","0","1.2","0.01","0.00"
